Flag for U.S.A. Weather past 2 weeks in Baltimore, Maryland, U.S.A.

Now
77 °F

More clouds than sun.


Feels Like: 79 °F
Forecast: 62 / 81 °F
Wind: 5 mph from Southeast

Location: Baltimore-Washington International Airport

Current Time: Jul 3, 2015 at 7:12:27 PM

Latest Report: Jul 3, 2015 at 5:54 PM


Visibility: 10 mi

Pressure: 29.94 "Hg

Humidity: 56%

Dew point: 60 °F

Location of BaltimoreLocation

Historic Weather in Baltimore — Graph

°F

Baltimore temperature yesterday

Maximum temperature yesterday: 75 °F (at 2:54 PM)
Minimum temperature yesterday: 65 °F (at 10:54 PM)
Average temperature yesterday: 69 °F

Past Weeks' High & Low Weather Summary

 TemperatureHumidityPressure
High94 °F (Jun 23, 2:54 PM)100% (Jun 28, 1:54 AM)30.09 "Hg (Jun 28, 1:54 AM)
Low59 °F (Jun 29, 4:54 AM)37% (Jun 29, 5:54 PM)29.65 "Hg (Jun 28, 1:54 AM)
Average74 °F74%29.91 "Hg
* Reported Jun 18 5:54 PM — Jul 3 5:54 PM, Baltimore, Weather by CustomWeather, © 2015

Note: Actual official high and low records may vary slightly from our data, if they occured in-between our weather recording intervals... More about our weather records

Advertising

Baltimore weather history for previous 24 hours

 ConditionsComfort  
Time TempWeatherWind HumidityBarometerVisibility
5:54 PM
Fri, Jul 3
77 °FMore clouds than sun.5 mph56%29.94 "Hg10 mi
4:54 PM79 °FMore clouds than sun.7 mph56%29.94 "Hg10 mi
3:54 PM79 °FMore clouds than sun.6 mph45%29.94 "Hg10 mi
2:54 PM79 °FPartly sunny.7 mph52%29.96 "Hg10 mi
1:54 PM79 °FMore clouds than sun.7 mph58%29.97 "Hg10 mi
12:54 PM78 °FMore clouds than sun.7 mph62%29.98 "Hg10 mi
11:54 AM77 °FMore clouds than sun.5 mph60%29.98 "Hg10 mi
10:54 AM74 °FPartly sunny.No wind71%29.98 "Hg8 mi
9:54 AM72 °FPartly sunny.3 mph76%29.99 "Hg6 mi
8:54 AM70 °FPartly sunny.6 mph81%29.96 "Hg6 mi
7:54 AM67 °FFog.No wind87%29.96 "Hg4 mi
6:54 AM63 °FFog.No wind97%29.94 "Hg3 mi
5:54 AM62 °FFog.No wind96%29.93 "Hg3 mi
4:54 AM61 °FFog.No wind100%29.92 "Hg6 mi
3:54 AM62 °FFog.No wind96%29.92 "Hg4 mi
2:54 AM62 °FFog.3 mph96%29.91 "Hg4 mi
1:54 AM63 °FFog.No wind97%29.91 "Hg4 mi
12:54 AM64 °FFog.No wind97%29.91 "Hg6 mi
11:54 PM
Thu, Jul 2
65 °FPassing clouds.No wind94%29.90 "Hg7 mi
10:54 PM65 °FFog.No wind94%29.90 "Hg6 mi
9:54 PM66 °FPassing clouds.No wind93%29.90 "Hg7 mi
8:54 PM69 °FScattered clouds.No wind87%29.87 "Hg8 mi
7:54 PM70 °FMore clouds than sun.No wind84%29.87 "Hg9 mi
Weather by CustomWeather, © 2015

See weather overviewHow to use our weather pages